Met observations

Date (UTC) Wind direction m/s kts. Vis. * Weather * Cloud * Temperature (°C) Dew point (°C) Air pressure (Hp)
27-10 12:06 6 11 VIS 10 km FBL RA SCT 600ft BKN 1000ft OVC 2000ft 9.9 9.9 986.1
27-10 11:56 6 12 VIS 7 km FBL RA SCT 400ft BKN 600ft OVC 1000ft 9.9 9.9 986.0
27-10 11:46 7 14 VIS 7 km FBL RA SCT 400ft BKN 600ft OVC 1000ft 9.9 9.9 986.1
27-10 11:36 9 18 VIS 10 km SCT 200ft BKN 500ft OVC 1400ft 9.9 9.9 985.9
27-10 11:26 8 16 VIS 10 km SCT 200ft BKN 500ft OVC 1400ft 10.0 9.9 986.0
27-10 11:16 8 15 VIS 10 km SCT 200ft BKN 500ft OVC 1400ft 10.0 10.0 985.9
27-10 11:06 10 19 VIS 10 km FEW 800ft BKN 1300ft BKN 2000ft 10.0 10.0 986.0
27-10 10:56 10 20 VIS 10 km FEW 800ft BKN 1300ft BKN 2000ft 10.1 10.1 986.1
27-10 10:46 8 16 VIS 10 km FEW 800ft BKN 1300ft BKN 2000ft 10.2 10.2 986.0
27-10 10:36 7 13 VIS 10 km FEW 800ft BKN 1300ft BKN 2000ft 10.2 10.2 986.2
27-10 10:26 10 20 VIS 10 km FEW 800ft BKN 1300ft BKN 2000ft 10.1 10.1 986.0
27-10 10:16 9 17 VIS 10 km FEW 800ft BKN 1300ft BKN 2000ft 10.0 10.0 986.1
27-10 10:06 9 18 VIS 10 km FEW 800ft BKN 1300ft BKN 2000ft 10.0 10.0 986.1
27-10 09:56 9 17 VIS 10 km FEW 800ft BKN 1300ft BKN 2000ft 10.1 10.1 986.2
27-10 09:46 9 17 VIS 10 km FEW 800ft BKN 1300ft BKN 2000ft 10.0 10.0 986.4
27-10 09:36 7 14 VIS 10 km FEW 800ft BKN 1300ft BKN 2000ft 10.0 10.0 986.3
27-10 09:26 7 14 VIS 10 km FEW 800ft BKN 1300ft BKN 2000ft 10.0 10.0 986.5
27-10 09:16 8 16 VIS 10 km FEW 800ft BKN 1300ft BKN 2000ft 10.1 10.1 986.8
27-10 09:06 7 14 VIS 10 km FEW 800ft BKN 1300ft BKN 2000ft 10.0 10.0 986.9
27-10 08:56 8 15 VIS 10 km FEW 800ft BKN 1300ft BKN 2000ft 10.0 10.0 987.1
27-10 08:46 7 14 VIS 10 km FEW 800ft BKN 1300ft BKN 2000ft 10.0 10.0 987.2
27-10 08:36 7 14 VIS 10 km FEW 800ft BKN 1300ft BKN 2000ft 10.0 10.0 987.1
27-10 08:26 7 13 VIS 10 km FEW 800ft BKN 1300ft BKN 2000ft 10.0 10.0 987.1
27-10 08:16 7 13 VIS 10 km FEW 800ft BKN 1300ft BKN 2000ft 10.0 10.0 987.2
27-10 08:06 6 12 VIS 10 km FEW 800ft BKN 1300ft BKN 2000ft 10.0 10.0 987.2
27-10 07:56 5 09 VIS 10 km FEW 800ft BKN 1300ft BKN 2000ft 9.9 9.9 987.4
27-10 07:46 5 10 VIS 10 km FEW 800ft BKN 1300ft BKN 2000ft 9.8 9.8 987.4
27-10 07:36 7 13 VIS 10 km FEW 800ft BKN 1300ft BKN 2000ft 9.8 9.8 987.4
27-10 07:26 5 10 VIS 10 km FEW 800ft BKN 1300ft BKN 2000ft 9.8 9.8 987.6
27-10 07:16 8 15 VIS 10 km FEW 800ft BKN 1300ft BKN 2000ft 9.8 9.8 987.6
27-10 07:06 6 12 VIS 10 km FEW 800ft BKN 1300ft BKN 2000ft 9.8 9.8 987.7
27-10 06:56 7 14 VIS 10 km FEW 800ft BKN 1300ft BKN 2000ft 9.7 9.7 987.8
27-10 06:46 9 17 VIS 10 km FEW 800ft BKN 1300ft BKN 2000ft 9.7 9.7 987.9
27-10 06:36 8 16 VIS 10 km FEW 800ft BKN 1300ft BKN 2000ft 9.8 9.8 987.8
27-10 06:26 8 15 VIS 10 km FEW 800ft BKN 1300ft BKN 2000ft 9.8 9.8 987.8
27-10 06:16 8 16 VIS 10 km FEW 800ft BKN 1300ft BKN 2000ft 9.8 9.8 987.9
27-10 06:06 7 14 VIS 10 km FEW 800ft BKN 1300ft BKN 2000ft 9.7 9.7 987.8
27-10 05:56 7 13 VIS 10 km FEW 800ft BKN 1300ft BKN 2000ft 9.7 9.7 987.8
27-10 05:46 8 15 VIS 10 km FEW 800ft BKN 1300ft BKN 2000ft 9.7 9.7 987.7
27-10 05:36 9 17 VIS 10 km FEW 800ft BKN 1300ft BKN 2000ft 9.6 9.5 987.7
27-10 05:26 4 08 VIS 10 km FEW 800ft BKN 1300ft BKN 2000ft 9.6 9.5 987.5
27-10 05:16 6 11 VIS 10 km FEW 800ft BKN 1300ft BKN 2000ft 9.4 9.4 987.7
27-10 05:06 3 05 VIS 10 km FEW 800ft BKN 1300ft BKN 2000ft 9.4 9.4 987.5
27-10 04:56 5 10 VIS 10 km FEW 800ft BKN 1300ft BKN 2000ft 9.2 9.2 987.6
27-10 04:46 6 11 VIS 10 km FEW 800ft BKN 1300ft BKN 2000ft 9.3 9.3 987.6
27-10 04:36 6 11 VIS 10 km FEW 800ft BKN 1300ft BKN 2000ft 9.3 9.1 987.6
27-10 04:26 5 10 VIS 10 km FEW 800ft BKN 1300ft BKN 2000ft 9.4 9.1 987.6
27-10 04:16 6 12 VIS 10 km FEW 800ft BKN 1300ft BKN 2000ft 9.4 9.2 987.5
27-10 04:06 4 07 VIS 10 km FEW 800ft BKN 1300ft BKN 2000ft 9.5 9.1 987.4
27-10 03:56 5 09 VIS 10 km FEW 800ft BKN 1300ft BKN 2000ft 9.4 9.4 987.5
27-10 03:46 6 12 VIS 10 km FEW 800ft BKN 1300ft BKN 2000ft 9.5 9.5 987.5
27-10 03:36 4 08 VIS 10 km FEW 800ft BKN 1300ft BKN 2000ft 9.7 9.6 987.5
27-10 03:26 4 07 VIS 10 km FEW 800ft BKN 1300ft BKN 2000ft 9.6 9.4 987.5
27-10 03:16 3 05 VIS 10 km FEW 800ft BKN 1300ft BKN 2000ft 9.7 9.3 987.5
27-10 03:06 4 08 VIS 10 km FEW 800ft BKN 1300ft BKN 2000ft 9.8 9.3 987.4
27-10 02:56 3 05 VIS 10 km FEW 800ft BKN 1300ft BKN 2000ft 9.8 9.1 987.5
27-10 02:46 3 06 VIS 10 km FEW 800ft BKN 1300ft BKN 2000ft 9.7 9.1 987.3
27-10 02:36 3 05 VIS 10 km FEW 800ft BKN 1300ft BKN 2000ft 9.8 8.9 987.2
27-10 02:26 4 08 VIS 10 km FEW 800ft BKN 1300ft BKN 2000ft 9.4 8.6 987.2
27-10 02:16 5 09 VIS 10 km FEW 800ft BKN 1300ft BKN 2000ft 9.7 8.7 987.0
27-10 02:06 4 08 VIS 10 km FEW 800ft BKN 1300ft BKN 2000ft 9.6 8.8 986.9
27-10 01:56 4 08 VIS 10 km FEW 800ft BKN 1300ft BKN 2000ft 9.8 9.0 986.8
27-10 01:46 5 10 VIS 10 km FEW 800ft BKN 1300ft BKN 2000ft 9.9 8.5 986.6
27-10 01:36 5 10 VIS 10 km FEW 800ft BKN 1300ft BKN 2000ft 9.8 8.4 986.5
27-10 01:26 5 10 VIS 10 km FEW 800ft BKN 1300ft BKN 2000ft 9.8 8.6 986.4
27-10 01:16 8 15 VIS 10 km FEW 800ft BKN 1300ft BKN 2000ft 9.5 8.3 986.3
27-10 01:06 11 21 VIS 10 km FEW 800ft BKN 1300ft BKN 2000ft 9.8 8.3 986.1
27-10 00:56 10 20 VIS 10 km FEW 800ft BKN 1300ft BKN 2000ft 9.9 8.5 986.1
27-10 00:46 9 18 VIS 10 km FEW 800ft BKN 1300ft BKN 2000ft 9.9 8.6 985.9
27-10 00:36 8 15 VIS 10 km FEW 800ft BKN 1300ft BKN 2000ft 10.0 8.6 985.8
27-10 00:26 6 12 VIS 10 km FEW 800ft BKN 1300ft BKN 2000ft 10.0 8.9 985.5
27-10 00:16 9 17 VIS 10 km FEW 800ft BKN 1300ft BKN 2000ft 10.0 8.7 985.4
27-10 00:06 11 21 VIS 10 km FEW 800ft BKN 1300ft BKN 2000ft 10.1 8.3 985.1
26-10 23:56 9 17 VIS 10 km FEW 800ft BKN 1300ft BKN 2000ft 10.2 8.7 984.9
26-10 23:46 10 19 VIS 10 km FEW 800ft BKN 1300ft BKN 2000ft 10.1 8.6 984.9
26-10 23:36 8 16 VIS 10 km FEW 800ft BKN 1300ft BKN 2000ft 10.3 8.7 984.6
26-10 23:26 11 22 VIS 10 km FEW 800ft BKN 1300ft BKN 2000ft 10.3 8.5 984.4
26-10 23:16 9 18 VIS 10 km FEW 800ft BKN 1300ft BKN 2000ft 10.2 8.6 984.0
26-10 23:06 9 17 VIS 10 km FEW 800ft BKN 1300ft BKN 2000ft 10.2 8.8 984.1
26-10 22:56 6 12 VIS 10 km FEW 800ft BKN 1300ft BKN 2000ft 10.3 9.0 983.9
26-10 22:46 9 17 VIS 10 km FEW 800ft BKN 1300ft BKN 2000ft 10.3 9.1 983.8
26-10 22:36 8 16 VIS 10 km FEW 800ft BKN 1300ft BKN 2000ft 10.5 8.9 983.6
26-10 22:26 7 13 VIS 10 km FEW 800ft BKN 1300ft BKN 2000ft 10.5 9.0 983.5
26-10 22:16 6 12 VIS 10 km FEW 800ft BKN 1300ft BKN 2000ft 10.5 9.2 982.9
26-10 22:06 6 12 VIS 10 km FEW 800ft BKN 1300ft BKN 2000ft 10.5 9.5 982.8
26-10 21:56 5 10 VIS 10 km FEW 800ft BKN 1300ft BKN 2000ft 10.4 9.7 982.7
26-10 21:46 5 10 VIS 10 km FEW 800ft BKN 1300ft BKN 2000ft 10.4 9.8 982.5
26-10 21:36 6 11 VIS 10 km FEW 800ft BKN 1300ft BKN 2000ft 10.4 9.8 982.3
26-10 21:26 6 12 VIS 10 km FEW 800ft BKN 1300ft BKN 2000ft 10.4 9.9 982.3
26-10 21:16 8 16 VIS 10 km FEW 800ft BKN 1300ft BKN 2000ft 10.3 9.9 982.3
26-10 21:06 6 12 VIS 10 km FEW 800ft BKN 1300ft BKN 2000ft 10.3 9.9 982.1
26-10 20:56 5 09 VIS 10 km FEW 800ft BKN 1300ft BKN 2000ft 10.3 9.8 982.1
26-10 20:46 6 12 VIS 10 km FEW 800ft BKN 1300ft BKN 2000ft 10.5 9.9 981.9
26-10 20:36 8 15 VIS 10 km FEW 800ft BKN 1300ft BKN 2000ft 10.6 9.9 981.6
26-10 20:26 7 14 VIS 10 km FEW 800ft BKN 1300ft BKN 2000ft 10.6 9.7 981.5
26-10 20:16 6 12 VIS 10 km FEW 800ft BKN 1300ft BKN 2000ft 10.4 10.0 981.0
26-10 20:06 6 11 VIS 10 km FEW 800ft BKN 1300ft BKN 2000ft 10.3 10.3 981.0
26-10 19:56 6 12 VIS 10 km FEW 800ft BKN 1300ft BKN 2000ft 10.4 10.4 980.7
26-10 19:46 5 10 VIS 10 km FEW 800ft BKN 1300ft BKN 2000ft 10.6 10.6 980.7
26-10 19:36 5 10 VIS 10 km FEW 800ft BKN 1300ft BKN 2000ft 10.4 10.4 980.4
26-10 19:26 5 10 VIS 10 km FEW 800ft BKN 1300ft BKN 2000ft 10.4 10.4 980.3
26-10 19:16 12 23 VIS 10 km FEW 800ft BKN 1300ft BKN 2000ft 10.4 10.4 980.1
26-10 19:06 8 16 VIS 10 km FEW 800ft BKN 1300ft BKN 2000ft 10.4 10.4 980.0
26-10 18:56 7 13 VIS 10 km FEW 800ft BKN 1300ft BKN 2000ft 10.5 10.5 980.0
26-10 18:46 6 11 VIS 10 km FEW 800ft BKN 1300ft BKN 2000ft 10.6 10.6 979.9
26-10 18:36 7 14 VIS 10 km FEW 800ft BKN 1300ft BKN 2000ft 10.6 10.6 979.9
26-10 18:26 7 13 VIS 10 km FEW 800ft BKN 1300ft BKN 2000ft 10.3 10.3 980.1
26-10 18:16 9 18 VIS 10 km FEW 800ft BKN 1300ft BKN 2000ft 10.2 10.2 980.4
26-10 18:06 8 15 VIS 10 km FEW 800ft BKN 1300ft BKN 2000ft 10.0 10.0 980.5
26-10 17:56 7 13 VIS 10 km FEW 800ft BKN 1300ft BKN 2000ft 9.8 9.8 980.7
26-10 17:46 14 27 VIS 10 km FEW 800ft BKN 1300ft BKN 2000ft 9.2 9.2 980.7
26-10 17:36 14 28 VIS 10 km FEW 800ft BKN 1300ft BKN 2000ft 9.0 9.0 980.8
26-10 17:26 14 28 VIS 10 km FEW 800ft BKN 1300ft BKN 2000ft 8.9 8.9 981.0
26-10 17:16 14 28 VIS 10 km FEW 800ft BKN 1300ft BKN 2000ft 8.7 8.7 981.2
26-10 17:06 15 29 VIS 10 km FEW 800ft BKN 1300ft BKN 2000ft 8.7 8.7 981.6
26-10 16:56 15 29 VIS 10 km FEW 800ft BKN 1300ft BKN 2000ft 8.6 8.6 982.2
26-10 16:46 16 31 VIS 10 km FEW 800ft BKN 1300ft BKN 2000ft 8.6 8.6 982.6
26-10 16:36 16 31 VIS 10 km FEW 800ft BKN 1300ft BKN 2000ft 8.6 8.5 982.8
26-10 16:26 16 32 VIS 10 km FEW 800ft BKN 1300ft BKN 2000ft 8.5 8.5 983.2
26-10 16:16 16 31 VIS 10 km FEW 800ft BKN 1300ft BKN 2000ft 8.6 8.6 984.0
26-10 16:06 16 31 VIS 10 km FEW 800ft BKN 1300ft BKN 2000ft 8.6 8.6 984.4
26-10 15:56 16 32 VIS 10 km FEW 800ft BKN 1300ft BKN 2000ft 8.6 8.6 984.8
26-10 15:46 15 29 VIS 10 km FEW 800ft BKN 1300ft BKN 2000ft 8.6 8.6 985.2
26-10 15:36 16 31 VIS 10 km FEW 800ft BKN 1300ft BKN 2000ft 8.5 8.5 985.8
26-10 15:26 14 27 VIS 10 km FEW 800ft BKN 1300ft BKN 2000ft 8.5 8.5 986.3
26-10 15:16 15 30 VIS 10 km FEW 800ft BKN 1300ft BKN 2000ft 8.5 8.5 986.7
26-10 15:06 16 32 VIS 10 km FEW 800ft BKN 1300ft BKN 2000ft 8.6 8.6 987.0
26-10 14:56 15 30 VIS 10 km FEW 800ft BKN 1300ft BKN 2000ft 8.6 8.6 987.4
26-10 14:46 15 30 VIS 10 km FEW 800ft BKN 1300ft BKN 2000ft 8.7 8.7 987.9
26-10 14:36 15 29 VIS 10 km FEW 800ft BKN 1300ft BKN 2000ft 8.7 8.7 988.2
26-10 14:26 14 27 VIS 10 km FEW 800ft BKN 1300ft BKN 2000ft 8.6 8.6 988.4
26-10 14:16 15 30 VIS 10 km FEW 800ft BKN 1300ft BKN 2000ft 8.6 8.6 988.7
26-10 14:06 16 31 VIS 10 km FEW 800ft BKN 1300ft BKN 2000ft 8.6 8.6 989.0
26-10 13:56 13 25 VIS 10 km FEW 800ft BKN 1300ft BKN 2000ft 8.6 8.6 989.4
26-10 13:46 14 28 VIS 10 km FEW 800ft BKN 1300ft BKN 2000ft 8.6 8.6 989.7
26-10 13:36 14 28 VIS 10 km FEW 800ft BKN 1300ft BKN 2000ft 8.6 8.6 990.0
26-10 13:26 12 24 VIS 10 km FEW 800ft BKN 1300ft BKN 2000ft 8.6 8.6 990.3
26-10 13:16 11 22 VIS 10 km FEW 800ft BKN 1300ft BKN 2000ft 8.6 8.6 990.8
26-10 13:06 12 24 VIS 10 km FEW 800ft BKN 1300ft BKN 2000ft 8.5 8.5 990.9
26-10 12:56 12 23 VIS 10 km FEW 800ft BKN 1300ft BKN 2000ft 8.5 8.5 991.2
26-10 12:46 12 23 VIS 10 km FEW 800ft BKN 1300ft BKN 2000ft 8.6 8.4 991.5
26-10 12:36 11 21 VIS 10 km FEW 800ft BKN 1300ft BKN 2000ft 8.5 8.2 991.9
26-10 12:26 10 20 VIS 10 km FEW 800ft BKN 1300ft BKN 2000ft 8.4 8.2 992.1
26-10 12:16 12 24 VIS 10 km FEW 800ft BKN 1300ft BKN 2000ft 8.4 8.0 992.2

Met data is updated every half hour and is for information only.
* Visibility, weather and cloud values are updated during the airport’s service hours only.
Flight planning documentation is available on opmet.dmi.dk.
For meteorological abbreviations, click here